Flag for Norway Weather past 2 weeks in Mysen, Norway

Now
57 °F

Sunny.


Feels Like: 56 °F
Forecast: 36 / 54 °F
Wind: 7 mph from Northeast

Location: Rygge


UV Index: 0 (Low)

Visibility: 25 mi


Pressure: 30.42 "Hg

Humidity: 37%

Dew point: 31 °F

Location of MysenLocation

Historic Weather in Mysen

°F

Mysen temperature yesterday

Maximum temperature yesterday: 68 °F (at 4:00 PM)
Minimum temperature yesterday: 45 °F (at 6:00 AM)
Average temperature yesterday: 56 °F

Past Weeks' High & Low Weather Summary

 TemperatureHumidityPressure
High68 °F (Apr 22, 4:00 PM)100% (Apr 11, 6:00 AM)30.43 "Hg (Apr 11, 6:00 AM)
Low30 °F (Apr 16, 3:00 AM)26% (Apr 15, 6:00 PM)29.38 "Hg (Apr 13, 6:00 AM)
Average46 °F71%29.97 "Hg
* Reported Apr 8 1:00 PM — Apr 23 1:00 PM, Mysen, Weather by CustomWeather, © 2014

Note: Actual official high and low records may vary slightly from our data, if they occured in-between our weather recording intervals... More about our weather records

Advertising

Historic Weather Conditions — Data for Previous 24 hours

 ConditionsComfort  
Time TempWeatherWind HumidityBarometerVisibility
1:00 PM
Apr 23
57 °FSunny.7 mph37%30.42 "Hg25 mi
12:00 PM56 °FSunny.8 mph38%30.43 "Hg22 mi
11:00 AM55 °FScattered clouds.8 mph37%30.43 "Hg22 mi
10:00 AM53 °FSunny.6 mph39%30.42 "Hg25 mi
9:00 AM51 °FSunny.7 mph41%30.41 "Hg22 mi
8:00 AM50 °FScattered clouds.6 mph45%30.40 "Hg28 mi
7:00 AM49 °FPartly sunny.7 mph49%30.37 "Hg31 mi
6:00 AM48 °FOvercast.8 mph51%30.35 "Hg31 mi
5:00 AM49 °FOvercast.7 mph51%30.32 "Hg31 mi
4:00 AM50 °FClear.7 mph59%30.30 "Hg31 mi
3:00 AM50 °FClear.6 mph68%30.27 "Hg31 mi
2:00 AM47 °FClear.2 mph74%30.26 "Hg31 mi
1:00 AM49 °FPassing clouds.2 mph70%30.24 "Hg31 mi
12:00 AM50 °FOvercast.2 mph67%30.22 "Hg31 mi
11:00 PM
Apr 22
51 °FClear.No wind69%30.20 "Hg31 mi
10:00 PM55 °FClear.1 mph52%30.18 "Hg31 mi
9:00 PM59 °FClear.1 mph48%30.16 "Hg31 mi
8:00 PM63 °FSunny.2 mph40%30.14 "Hg28 mi
7:00 PM66 °FSunny.5 mph37%30.13 "Hg31 mi
6:00 PM67 °FSunny.5 mph37%30.13 "Hg22 mi
5:00 PM67 °FSunny.5 mph34%30.13 "Hg22 mi
4:00 PM68 °FSunny.6 mph36%30.13 "Hg28 mi
3:00 PM67 °FSunny.6 mph35%30.14 "Hg22 mi
2:00 PM65 °FScattered clouds.6 mph40%30.14 "Hg22 mi
Weather by CustomWeather, © 2014

See weather overview